Live-Position
3D-Globus wird geladen...
Über Starlink 31253
Group: 3 satellites
Beschreibung wird geladen...
Nächste Überflüge
Passes for default location (London). Set your location on the main map for personalized predictions.
Höhenverlauf
Loading altitude history...
No altitude history available
Zweizeiliger Elementsatz
1 58830U 24017E 26122.16670139 -.00015983 00000-0 -50423-3 0 9999
2 58830 53.1598 315.7142 0000839 72.3425 40.0110 15.31710915 5906
Epoch: 2. Mai 2026 •
Age: 9 hours
Aktueller Status
Höhe 476.6 km
Geschwindigkeit 7.63 km/s
Subsatellitenpunkt 52.83°N,
26.32°W
Startdatum 24. Jan. 2024
Alter 2.2 years
Typ internet
Startgruppe
Falcon 9 •
Group 7-11 •
20 satellites
Starlink 31233
58826
Starlink 31271 58827
Starlink 31222 58828
Starlink 31258 58829
Starlink 31232 58831
Starlink 31263 58832
Starlink 31171 58834
Starlink 31246 58835
Starlink 31251 58836
Starlink 31249 58838
Starlink 31250 58839
Starlink 31248 58840
Starlink 31236 58841
Starlink 31228 58842
Starlink 31280 58843
Starlink 31269 58844
Starlink 31264 58845
Starlink 31273 58846
Starlink 31262 58847
Technische Details
Klassifizierung Payload
Masse 730.00 kg
Trockenmasse 700.00 kg
Gesamtmasse 730.00 kg
Länge 0.30 m
Durchmesser 4.10 m
Spannweite 29.00 m
Form Box + pan
Hersteller SPXS
Bus-Typ Starlink V2M
Phasenstatus In Orbit
Besitzer/Staat SPXS/US
Most Searched
Loading...